Sacramento International, CA

7:08 PM PDT on June 23, 2017 (GMT -0700)
Sacramento International

Weather History for KSMF - February, 2014

Change the Weather History Date:

Tuesday, February 18, 2014

  Actual Average Record
Temperature  
Mean Temperature 52 °F -  
Max Temperature 64 °F 61 °F 74 °F (1977)
Min Temperature 39 °F 42 °F 29 °F (1956)
Degree Days  
Heating Degree Days 14    
Growing Degree Days 2 (Base 50)    
Moisture  
Dew Point 41 °F    
Average Humidity 69    
Maximum Humidity 93    
Minimum Humidity 41    
Precipitation  
Precipitation 0.00 in - - ()
Sea Level Pressure  
Sea Level Pressure 30.12 in    
Wind  
Wind Speed 3 mph (SW)    
Max Wind Speed 10 mph    
Max Gust Speed -    
Visibility 10 miles    
Events      
Averages and records for this station are not official NWS values.
T = Trace of Precipitation, MM = Missing Value Source: NWS Daily Summary

Daily Weather History Graph

Daily Weather History Graph

Search for Another Location

Airport or City:

Trip Planner

Search our weather history database for the weather conditions in past years. The results will help you decide how hot, cold, wet, or windy it might be!

Date:

Astronomy

Feb. 18, 2014 Rise Set
Actual Time 6:53 AM PST 5:47 PM PST
Civil Twilight 6:26 AM PST 6:14 PM PST
Nautical Twilight 5:55 AM PST 6:45 PM PST
Astronomical Twilight 5:24 AM PST 7:16 PM PST
Moon 9:43 PM PST (2/18) 8:31 AM PST (2/18)
Length of Visible Light 11h 48m
Length of Day
10h 54m
Waning Gibbous, 86% of the Moon is Illuminated
Feb 18
Waning Gibbous
Feb 22
Last Quarter
Mar 1
New
Mar 8
First Quarter
Mar 16
Full

Hourly Weather History & Observations

Time (PST) Temp. Windchill Dew Point Humidity Pressure Visibility Wind Dir Wind Speed Gust Speed Precip Events Conditions
12:53 AM 39.9 °F - 37.0 °F 89% 30.15 in 10.0 mi Calm Calm - N/A   Scattered Clouds
1:53 AM 39.9 °F - 37.9 °F 93% 30.15 in 10.0 mi Calm Calm - N/A   Scattered Clouds
2:53 AM 43.0 °F 41.3 °F 39.0 °F 86% 30.15 in 10.0 mi WNW 3.5 mph - N/A   Scattered Clouds
3:53 AM 41.0 °F - 39.0 °F 93% 30.13 in 10.0 mi Calm Calm - N/A   Mostly Cloudy
4:53 AM 42.1 °F 40.2 °F 37.9 °F 85% 30.14 in 10.0 mi NW 3.5 mph - N/A   Mostly Cloudy
5:53 AM 42.1 °F 39.2 °F 37.9 °F 85% 30.15 in 10.0 mi West 4.6 mph - N/A   Mostly Cloudy
6:53 AM 42.1 °F 38.4 °F 39.0 °F 89% 30.16 in 10.0 mi WNW 5.8 mph - N/A   Mostly Cloudy
7:53 AM 45.0 °F 41.2 °F 39.9 °F 82% 30.18 in 10.0 mi WNW 6.9 mph - N/A   Overcast
8:53 AM 46.0 °F 43.1 °F 42.1 °F 86% 30.16 in 10.0 mi East 5.8 mph - N/A   Overcast
9:53 AM 48.9 °F - 43.0 °F 80% 30.18 in 10.0 mi Calm Calm - N/A   Overcast
10:53 AM 55.0 °F - 44.1 °F 67% 30.17 in 10.0 mi Calm Calm - N/A   Overcast
11:53 AM 57.9 °F - 39.0 °F 49% 30.16 in 10.0 mi NNE 3.5 mph - N/A   Mostly Cloudy
12:53 PM 61.0 °F - 37.9 °F 42% 30.14 in 10.0 mi Calm Calm - N/A   Mostly Cloudy
1:53 PM 63.0 °F - 39.0 °F 41% 30.11 in 10.0 mi Variable 3.5 mph - N/A   Mostly Cloudy
2:53 PM 64.0 °F - 39.9 °F 41% 30.08 in 10.0 mi South 4.6 mph - N/A   Overcast
3:53 PM 63.0 °F - 39.0 °F 41% 30.08 in 10.0 mi SSW 10.4 mph - N/A   Overcast
4:53 PM 63.0 °F - 41.0 °F 45% 30.09 in 10.0 mi South 6.9 mph - N/A   Overcast
5:53 PM 61.0 °F - 43.0 °F 52% 30.08 in 10.0 mi SSE 5.8 mph - N/A   Overcast
6:53 PM 60.1 °F - 43.0 °F 53% 30.06 in 10.0 mi SSE 10.4 mph - N/A   Overcast
7:53 PM 57.9 °F - 45.0 °F 62% 30.07 in 10.0 mi SSW 8.1 mph - N/A   Overcast
8:53 PM 55.9 °F - 48.0 °F 75% 30.06 in 10.0 mi South 9.2 mph - N/A   Mostly Cloudy
9:53 PM 55.0 °F - 46.9 °F 74% 30.04 in 10.0 mi SSE 10.4 mph - N/A   Mostly Cloudy
10:53 PM 51.1 °F - 46.9 °F 86% 30.05 in 10.0 mi SW 6.9 mph - N/A   Scattered Clouds
11:53 PM 55.0 °F - 44.1 °F 67% 30.07 in 10.0 mi West 6.9 mph - N/A   Scattered Clouds